Regional Weather Roundup
Issued by NWS New Orleans/Baton Rouge, LA

Current Version | Previous Version | Text Only | Print | Product List | Glossary On
Versions: 1 2 3 4 5 6 7 8 9 10 11 12 13 14 15 16 17 18 19 20 21 22 23 24 25 26 27 28 29 30 31 32 33 34 35 36 37 38 39 40 41 42 43 44 45 46 47 48 49 50
000
ASUS44 KLIX 021310
RWRLIX
NEW ORLEANS REGIONAL WEATHER ROUNDUP
NATIONAL WEATHER SERVICE NEW ORLEANS LA
700 AM CST MON MAR 02 2015

NOTE: "FAIR" INDICATES FEW OR NO CLOUDS BELOW 12,000 FEET WITH NO
      SIGNIFICANT WEATHER AND/OR OBSTRUCTIONS TO VISIBILITY.
      SKY/WX - SKY CONDITION AND SIGNIFICANT WEATHER.
      TMP - AIR TEMPERATURE.     DP    - DEWPOINT TEMPERATURE.
      RH  - RELATIVE HUMIDITY.   PRES  - PRESSURE.
      HI  - HEAT INDEX.          WCI   - WIND CHILL INDEX.

*  THESE STATIONS ARE NOT NWS OR FAA STATIONS AND ARE NOT UNDER
   NWS QUALITY CONTROL.

LAZ038-040-048-061>063-065>067-069-021400-
SOUTHEAST LOUISIANA

CITY           SKY/WX    TMP DP  RH WIND       PRES   REMARKS
N.O. AUDUBON     N/A     61  61 100 MISG        N/A
N.O. INTL ARPT CLOUDY    61  59  93 SE6       30.26R FOG
N.O. LAKEFRONT CLOUDY    61  58  90 SE7       30.27R FOG
SLIDELL        CLOUDY    62  61  96 CALM      30.26R
BATON ROUGE    CLOUDY    60  59  96 E3        30.25R
BOOTHVILLE     FOG       66  66 100 SE8       30.27S VSB 1/4
BELLE CHASSE   CLOUDY    63  60  90 VRB6      30.26R FOG
BOGALUSA*        N/A     62  59  90 CALM      30.28S
GALLIANO*      CLOUDY    53  53  99 CALM      30.26S FOG
NEW ROADS*     LGT RAIN  61  60  97 CALM      30.26R
GONZALES*      CLOUDY    60  60 100 CALM      30.25R FOG
HAMMOND*       CLOUDY    61  57  88 SE3       30.28R
HOUMA*         FOG       61  61 100 E9        30.25R VSB 1/2
PORT FOURCHON* FOG       63  61  94 NE7       30.28S VSB 0

$$

MSZ070-080>082-021400-
SOUTHERN MISSISSIPPI

CITY           SKY/WX    TMP DP  RH WIND       PRES   REMARKS
MCCOMB         CLOUDY    60  59  96 CALM      30.27R FOG
GULFPORT       FOG       60  58  92 E8        30.26S VSB 1
BILOXI         CLOUDY    60  60 100 SE6       30.26S
PASCAGOULA     FOG       58  58 100 CALM      30.28R VSB 1/4
STENNIS ARPT*  CLOUDY    57  55  94 CALM      30.27  FOG

$$

COASTAL OBSERVATIONS
LAKE AND NEARSHORE STATIONS

STATION/POSITION TIME  TEMP    WIND        PRES    WAVE
                       AIR SEA DIR/SP/G            HT/PER
                 (UTC) (F)     (DEG/KT/KT) (MB)    (FT/S)
PASCAGOULA       1300   60     110/  5/  8 1024.9
WAVELAND YACHT   1300   55 54  340/  3/  4 1024.5
GRAND ISLE       1300   62 60   80/  3/  5 1025.2
SOUTHWEST PASS   1300   60 47   90/ 11/ 12 1025.2
NEW CANAL        1300          140/  3/  7 1025.1
SHELL BEACH      1300   63 56  130/  8/ 10 1024.8

OFFSHORE STATIONS

STATION/POSITION TIME  TEMP    WIND        PRES    WAVE
                       AIR SEA DIR/SP/G            HT/PER
                 (UTC) (F)     (DEG/KT/KT) (MB)    (FT/S)
64 S DAUPHIN ISL 1243   69 71  140/ 16/ 17 1025.1    3/ 5

$$



USA.gov is the U.S. government's official web portal to all federal, state and local government web resources and services.